Location: Seattle
(47.6064°N, 122.3308°W)
Time: 02:12:38
(UTC-07:00)

STRAND 1 - Pass Details

Date: 03 April 2023
Orbit: 767 x 779 km, 98.4° (Epoch: 02 June)

Event Time Altitude Azimuth Distance (km) Brightness Sun altitude
Rises 22:05:31 0° 357° (N) 3,251 ? -22.8°
Reaches altitude 10° 22:09:36 10° 325° (NW) 2,318 ? -23.4°
Maximum altitude 22:11:06 11° 308° (NW) 2,226 ? -23.6°
Drops below altitude 10° 22:12:36 10° 290° (WNW) 2,313 ? -23.7°
Sets 22:16:40 0° 258° (WSW) 3,234 ? -24.3°
